OPS 4682 DEB, 19576

Orbit data source: Space-Track

OPS 4682 DEB, 19576 is space debris in LEO originally from a launch on Sat, 03 Apr 1965 UTC launched from the Air Force Western Test Range (AFWTR). Debris objects in space refer to the collection of defunct objects orbiting the Earth. Examples of debris include non-operational satellites, rocket bodies, and fragments generated from explosions, collisions, or faulty payload assembly.

Loading next visibility...
Identifier
19576, 1965-027AV
Orbit
LEO
Country
Flag of USUS
Related business
Manufacturer
Unknown
Mission
Spacecraft
Bus & Motor
Unknown
Mass
Unknown
Launch date (UTC)
1965-04-03 (61 years ago)
Launch vehicle
Unknown
Launch site
Air Force Western Test Range (AFWTR)
Object type
Payload
Rocket body
Debris
Shape & HBR
Unknown shape, 0.1 m
Radar Cross Section
Small (<0.1 m²)

Expand to show TLE details & history
Last TLE update: 1 day ago

TLE from 1 day ago
0 OPS 4682 DEB
1 19576U 65027AV  25340.33590353 -.00000330  00000-0 -11111-2 0  9998
2 19576  90.2377   4.8285 0025990  11.0471   6.8816 13.00643381773289
Epoch: 2025-12-06T08:03Z
TLE epoch observation values (Epoch: 2025-12-06T08:03:42.064Z)
Latitude
17.95469°
Longitude
168.46149°
Altitude
1,242.195 km
Speed
7.244 km/s
True Right ascension
00h 19m 00s
True Declination
17° 51' 38"
Sunlit
Object was in daylight at epoch
Visualization orbit readout
Latitude
Unknown
Longitude
Unknown
Altitude
Unknown
Speed
Unknown
Apparent Right ascension
Unknown
Apparent Declination
Unknown
Sunlit
N/A
Visualization observer readout
Local Sidereal Time
06:13:32
Azimuth
Unknown
Elevation
Unknown
Doppler factor
Unknown
Orbital elements
Apogee altitude
1,276.536 km
Perigee altitude
1,236.85 km
Semi-major axis
7,634.83 km
Eccentricity
0.0026
Inclination
90.2377°
RAAN
4.8285°
Arg. of periapsis
11.0471°
True anomaly
6.9174°
Mean anomaly
6.8816°
Eccentric anomaly
6.89949°
Mean motion
3.25345 °/min
Orbital period
110.65 mins
BSTAR
-0.0011111
Loading maneuver chart data...
Computing Atmospheric mass density...
Loading historical data...
Loading historical data...
Loading historical data...
Loading historical data...
Loading historical data...
Loading historical data...
Loading historical data...

Documentation

Showing up to 5 results
|